Bar Harbor, ME

8:53 AM EDT on September 18, 2019 (GMT -0400)
Hancock County-Bar Harbor

Weather History for KBHB - August, 2019

Change the Weather History Date:

Sunday, August 25, 2019

  Actual Average Record
Temperature  
Mean Temperature 58 °F -  
Max Temperature 69 °F 73 °F 88 °F (1948)
Min Temperature 48 °F 54 °F 44 °F (1967)
Degree Days  
Heating Degree Days 6    
Growing Degree Days 8 (Base 50)    
Moisture  
Dew Point 50 °F    
Average Humidity 78    
Maximum Humidity 100    
Minimum Humidity 47    
Precipitation  
Precipitation 0.00 in - - ()
Sea Level Pressure  
Sea Level Pressure 30.37 in    
Wind  
Wind Speed 3 mph (ENE)    
Max Wind Speed 8 mph    
Max Gust Speed -    
Visibility 10 miles    
Events      
Averages and records for this station are not official NWS values.
T = Trace of Precipitation, MM = Missing Value Source: NWS Daily Summary

Daily Weather History Graph

Daily Weather History Graph

Search for Another Location

Airport or City:

Astronomy

Aug. 25, 2019 Rise Set
Actual Time 5:47 AM EDT 7:22 PM EDT
Civil Twilight 5:17 AM EDT 7:53 PM EDT
Nautical Twilight 4:39 AM EDT 8:30 PM EDT
Astronomical Twilight 4:00 AM EDT 9:09 PM EDT
Moon 12:13 AM EDT (8/25) 3:47 PM EDT (8/25)
Length of Visible Light 14h 36m
Length of Day
13h 34m
Waning Crescent, 29% of the Moon is Illuminated
Aug 25
Waning Crescent
Aug 30
New
Sep 5
First Quarter
Sep 14
Full
Sep 21
Last Quarter

Hourly Weather History & Observations

Time (EDT) Temp. Dew Point Humidity Pressure Visibility Wind Dir Wind Speed Gust Speed Precip Events Conditions
12:56 AM 52.0 °F 50.0 °F 93% 30.36 in 10.0 mi Calm Calm - N/A   Clear
1:56 AM 50.0 °F 48.0 °F 93% 30.36 in 10.0 mi Calm Calm - N/A   Clear
2:56 AM 50.0 °F 48.9 °F 96% 30.36 in 10.0 mi NNW 3.5 mph - N/A   Clear
3:56 AM 48.0 °F 48.0 °F 100% 30.37 in 10.0 mi North 3.5 mph - N/A   Clear
4:56 AM 48.0 °F 46.9 °F 96% 30.38 in 10.0 mi Calm Calm - N/A   Clear
5:56 AM 48.0 °F 46.9 °F 96% 30.38 in 10.0 mi Variable 3.5 mph - N/A   Clear
6:56 AM 51.1 °F 48.0 °F 89% 30.40 in 10.0 mi North 5.8 mph - N/A   Clear
7:56 AM 54.0 °F 50.0 °F 86% 30.41 in 10.0 mi North 8.1 mph - N/A   Clear
8:56 AM 59.0 °F 52.0 °F 78% 30.42 in 10.0 mi NE 5.8 mph - N/A   Clear
9:39 AM 60.8 °F 51.8 °F 72% 30.42 in 10.0 mi Variable 4.6 mph - N/A   Mostly Cloudy
9:56 AM 61.0 °F 52.0 °F 72% 30.42 in 10.0 mi ESE 5.8 mph - N/A   Mostly Cloudy
10:25 AM 60.8 °F 51.8 °F 72% 30.41 in 10.0 mi SE 6.9 mph - N/A   Partly Cloudy
10:56 AM 63.0 °F 51.1 °F 65% 30.41 in 10.0 mi ESE 6.9 mph - N/A   Clear
11:56 AM 64.9 °F 51.1 °F 61% 30.41 in 10.0 mi Variable 4.6 mph - N/A   Clear
12:56 PM 68.0 °F 50.0 °F 52% 30.38 in 8.0 mi Variable 3.5 mph - N/A   Clear
1:56 PM 69.1 °F 48.0 °F 47% 30.37 in 10.0 mi ESE 5.8 mph - N/A   Clear
2:56 PM 69.1 °F 50.0 °F 51% 30.35 in 10.0 mi East 6.9 mph - N/A   Clear
3:56 PM 66.9 °F 52.0 °F 59% 30.33 in 10.0 mi East 5.8 mph - N/A   Clear
4:56 PM 66.0 °F 52.0 °F 60% 30.33 in 10.0 mi East 6.9 mph - N/A   Clear
5:56 PM 64.9 °F 51.1 °F 61% 30.32 in 10.0 mi East 4.6 mph - N/A   Clear
6:56 PM 62.1 °F 52.0 °F 70% 30.32 in 10.0 mi Calm Calm - N/A   Clear
7:56 PM 57.0 °F 51.1 °F 81% 30.33 in 10.0 mi Calm Calm - N/A   Clear
8:56 PM 55.0 °F 52.0 °F 89% 30.35 in 10.0 mi WNW 4.6 mph - N/A   Clear
9:56 PM 54.0 °F 52.0 °F 93% 30.34 in 10.0 mi Calm Calm - N/A   Clear
10:56 PM 54.0 °F 53.1 °F 97% 30.34 in 10.0 mi Calm Calm - N/A   Clear
11:56 PM 51.1 °F 50.0 °F 96% 30.33 in 10.0 mi Calm Calm - N/A   Clear